User: anonymous   Login
Location: Unspecified
(0.0000°N, 0.0000°E)
Time: 10:05:54
(UTC+00:00)
Language:

YAOGAN-35 A - Orbit

View from above orbital plane
View from above orbital plane
View from above satellite
View from above satellite

Ground track
Ground track

The orbit is defined by the following mean orbital elements,

1 49390U          26145.47228368 +.00000000 +00000-0 +31328-3 0 00006
2 49390  34.9906  59.5398 0005597 185.0138 175.0522 15.26218735    01
Epoch (UTC): 25 May 2026 11:20:05
Eccentricity: 0.0005597
inclination: 34.9906°
perigee height: 483 km
apogee height: 491 km
right ascension of ascending node: 59.5398°
argument of perigee: 185.0138°
revolutions per day: 15.26218735
mean anomaly at epoch: 175.0522°

The dashed part of the orbit path shows where the satellite is in the earth's shadow,  

DLR